Вернуться в каталог

FENGYUN 1C DEB *

LostSSO
NORAD 47044·DEBRIS·🇨🇳 China

Запущен May 10, 1999 с Taiyuan Satellite Launch Center

Loading…

Ближайшие Пролёты (ближайшие 24 часа)

TLE

УстаревшееSource: Space-Track

Эпоха: Aug 22, 2022, 22:53 UTC

1 47044U 99025FBW 22234.95413372  .00001211  00000-0  64023-3 0  9994
2 47044  99.0368 291.2233 0074814  58.3197  66.6945 14.14274429589810

Отслеживайте FENGYUN 1C DEB * в реальном времени с AllMySat

Download on the App Store